Regional Weather Roundup
Issued by NWS

Home | Current Version | Previous Version | Text Only | Print | Product List | Glossary Off
Versions: 1 2 3 4 5 6 7 8 9 10 11 12 13 14 15 16 17 18 19 20 21 22 23 24 25 26 27

000
ASUS45 KBOU 241110
RWRCO

WEATHER ROUNDUP FOR COLORADO
NATIONAL WEATHER SERVICE DENVER/BOULDER CO
500 AM MDT SAT SEP 24 2016

NOTE: "FAIR" INDICATES FEW OR NO CLOUDS BELOW 12000 FEET WITH NO
SIGNIFICANT WEATHER AND/OR OBSTRUCTIONS TO VISIBILITY.

COZ001>005-013-030-031-241200-
...NORTHWEST COLORADO...

CITY           SKY/WX    TMP DP  RH WIND       PRES   REMARKS
CRAIG          CLOUDY    43  35  73 VRB3      30.05F
HAYDEN         CLOUDY    37  34  87 E8        30.06S
MEEKER         CLOUDY    43  36  76 S14G22    30.06S
MOUNT WERNER   NOT AVBL
STEAMBOAT SPGS CLOUDY    37  35  94 CALM      30.07R
WALDEN           N/A     34  28  80 S7        30.09R WCI  28
$$

COZ006>008-011-241200-
...WEST CENTRAL VALLEYS...

CITY           SKY/WX    TMP DP  RH WIND       PRES   REMARKS
GRAND JUNCTION CLOUDY    47  43  86 E8        30.08S
MONTROSE       CLOUDY    44  38  79 CALM      30.13S
EAGLE          CLOUDY    37  36  93 CALM      30.13R
RIFLE          CLOUDY    44  42  93 CALM      30.10R
DELTA          NOT AVBL
NUCLA          CLOUDY    45  34  65 SE5       30.16S
$$

COZ017>023-064>068-241200-
...SOUTHWEST COLORADO...

CITY           SKY/WX    TMP DP  RH WIND       PRES   REMARKS
DURANGO        FAIR      33  30  88 NE6       30.19R WCI  28
CORTEZ         CLOUDY    41  38  89 CALM      30.16R
PAGOSA SPRINGS FAIR      31  31 100 CALM      30.21S
TELLURIDE      CLOUDY    37  26  64 E3        30.22S
WOLF CREEK PAS FAIR      21  19  93 MISG      30.29S
$$

COZ009-010-012-014-032>034-037-058>063-241200-
...CENTRAL COLORADO...

CITY           SKY/WX    TMP DP  RH WIND       PRES   REMARKS
ASPEN          CLOUDY    35  31  85 NW6       30.11R WCI  30
BUENA VISTA    FAIR      33  26  75 SE9       30.14R WCI  25
COPPER MTN     FAIR      28  18  64 MISG      30.17F
BERTHOUD PASS  FAIR      18   3  53 W17G26    30.15F WCI   2
COTTONWOOD PAS FAIR      36  18  48 W8G16     30.17R
GUNNISON       MIX PCPN  32  28  86 E3        30.19S
KREMMLING      CLOUDY    37  28  70 W5        30.11R
LEADVILLE      MOCLDY    30  18  60 SE10      30.14F WCI  21
MONARCH PASS   FAIR      21  19  93 W21       30.32S WCI   6
SALIDA         FAIR      40  26  57 NW9       30.20S
SUNLIGHT       MIX PCPN  30  30 100 MISG      30.18S
WILKERSON PASS FAIR      23  21  93 SW10G21   30.17R WCI  12
$$

COZ069>075-241200-
...SAN LUIS VALLEY/SANGRE DE CRISTO MOUNTAINS...

CITY           SKY/WX    TMP DP  RH WIND       PRES   REMARKS
ALAMOSA        MOCLDY    26  24  92 E5        30.18S WCI  20
LA VETA PASS   FAIR      32  27  80 MISG      30.14R
SAGUACHE       NOT AVBL
$$

COZ035-036-038>040-241200-
...NORTHERN COLORADO FRONT RANGE...

CITY           SKY/WX    TMP DP  RH WIND       PRES   REMARKS
DENVER INTL AP FAIR      39  35  86 E8        29.98F
DMNS CITY PARK   N/A     48  27  43 CALM      29.97S
AURORA         PTCLDY    47  22  37 SW9       29.97F
FRONT RANGE AP FAIR      41  36  81 S7        29.99F
ERIE MUNI ARPT FAIR      43  38  85 CALM      29.98F
BOULDER MUN AP FAIR      43  39  87 W7        29.98S
CENTENNIAL     FAIR      49  20  31 W12       29.97F
BROOMFIELD     FAIR      45  34  65 NE12      29.99F
FORT COLLINS   FAIR      41  39  93 S8        30.00S
LONGMONT       FAIR      45  41  86 CALM      30.00S
$$

COZ041-046-047-076>085-087-088-241200-
...PIKES PEAK/PALMER DIVIDE AND SOUTHERN FOOTHILLS...

CITY           SKY/WX    TMP DP  RH WIND       PRES   REMARKS
COLO. SPRINGS  FAIR      44  18  35 E5        30.03R
A. F. ACADEMY  MOCLDY    48  17  29 NW13G21   30.03R
SCHRIEVER AFB  NOT AVBL
ELLICOTT       FAIR     N/A N/A N/A N8        30.01F
FALCON         FAIR      44  18  35 NW9       30.04F
FORT CARSON    FAIR      41  21  45 N5        30.00R
LIMON          FAIR      34  31  88 CALM      30.02S
MONUMENT HILL  FAIR      41  21  45 SW16      30.04F
TRINIDAD       FAIR      46  24  42 SE3       30.04R
$$

COZ042>045-048>051-090-091-241200-
...NORTHEAST COLORADO...

CITY           SKY/WX    TMP DP  RH WIND       PRES   REMARKS
GREELEY ARPT   FAIR      43  39  87 S7        30.00R
AKRON          FAIR      40  35  83 NW8       29.98R
BURLINGTON     FAIR      47  41  80 NW9       29.99R
WRAY           NOT AVBL
STERLING       FAIR      45  37  76 NW7       29.94R
HOLYOKE        FAIR      52  43  71 NW13      29.94F
FORT MORGAN    FAIR      40  33  77 SW7       30.00R
$$

COZ086-089-092>099-241200-
...SOUTHEAST COLORADO...

CITY           SKY/WX    TMP DP  RH WIND       PRES   REMARKS
PUEBLO         FAIR      52  21  29 S3        29.97R
LA JUNTA       LGT RAIN  52  31  44 S6        30.00R
LAMAR          FAIR      43  33  68 CALM      29.98R
SPRINGFIELD    NOT AVBL
$$




USA.gov is the U.S. government's official web portal to all federal, state and local government web resources and services.